Regional Weather Roundup
Issued by NWS

Home | Current Version | Previous Version | Text Only | Print | Product List | Glossary Off
Versions: 1 2 3 4 5 6 7 8 9 10 11 12 13 14 15 16 17 18 19 20 21 22 23 24 25 26 27 28 29 30 31 32 33 34 35 36 37 38 39 40 41 42 43 44 45 46 47 48 49 50

671
ASUS43 KFSD 232202
RWRSD

WEATHER ROUNDUP FOR SOUTH DAKOTA
NATIONAL WEATHER SERVICE SIOUX FALLS SD
500 PM CDT WED MAY 23 2018

NOTE: "FAIR" INDICATES FEW OR NO CLOUDS BELOW 12,000 FEET WITH NO
SIGNIFICANT WEATHER AND/OR OBSTRUCTIONS TO VISIBILITY.


SDZ001>005-009-010-012>017-232300-
NORTHWEST AND NORTH CENTRAL SOUTH DAKOTA

CITY           SKY/WX    TMP DP  RH WIND       PRES   REMARKS
BUFFALO          N/A     79  54  41 SW9       29.78F
FAITH            N/A     74  65  73 VRB6      29.86F
MOBRIDGE       MOSUNNY   83  68  60 S13       29.83S
$$

SDZ012>016-024>037-041>051-057-063-072>074-232300-
SOUTHWEST AND SOUTH CENTRAL SOUTH DAKOTA

CITY           SKY/WX    TMP DP  RH WIND       PRES   REMARKS
RAPID CTY ARPT MOSUNNY   78  60  53 SE14      29.88S
PIERRE         PTSUNNY   81  67  62 CALM      29.83F
CUSTER         PTSUNNY   68  40  35 SW9       30.02R
ELLSWORTH AFB  MOSUNNY   77  62  59 SE12      29.87S
PHILIP         PTSUNNY   77  65  66 SE5       29.86F
PINE RIDGE     SUNNY     80  60  50 SE9       29.90F
SPEARFISH      FAIR      73  63  68 E13G20    29.91S
WINNER         FAIR      83  61  47 S13G22    29.88S
$$

SDZ004>011-016>023-039-040-232300-
NORTHEAST SOUTH DAKOTA

CITY           SKY/WX    TMP DP  RH WIND       PRES   REMARKS
ABERDEEN       TSTM      81  69  67 SE23G30   29.87F
WATERTOWN      PTSUNNY   79  67  66 E13G24    29.95F
BROOKINGS      CLOUDY    82  63  52 S14       29.96F
SISSETON         N/A     71  65  81 SE17G23   29.96F
$$

SDZ017-020-022-023-036>040-048>070-232300-
SOUTHEAST SOUTH DAKOTA

CITY           SKY/WX    TMP DP  RH WIND       PRES   REMARKS
SIOUX FALLS    CLOUDY    83  63  50 S18G25    29.96R
HURON          SUNNY     86  62  44 S22G33    29.89R
CHAMBERLAIN    CLOUDY    87  67  51 S15       29.87S
MITCHELL       MOSUNNY   80  64  58 SE21G37   29.91R
YANKTON        LGT RAIN  77  62  59 S8        29.95F
$$

ABBREVIATIONS USED IN REMARKS
   TC - TEMPERATURE IN CELSIUS
  WCI - WIND CHILL INDEX
   HX - HEAT INDEX
  VSB - VISIBILITY





USA.gov is the U.S. government's official web portal to all federal, state and local government web resources and services.